#timestamp,LO_Frequency,Hit,StdDev 
1620055015.3,286046998.7,P
1620055035.1,286047001.1,N
1620055055.9,286046998.1,N
1620055075.7,286047000.0,N
1620055095.6,286046998.6,N
1620055115.4,286047000.9,N
1620055135.2,286046999.3,N
1620055155.1,286047000.7,N
1620055156.0,286047000.7,N
1620055175.8,286046998.6,N
1620055195.6,286046999.4,N
1620055215.5,286046998.8,N
1620055235.3,286046999.4,N
1620055255.2,286046997.0,Y
1620055275.0,286046999.8,P
1620055275.9,286046999.8,P
1620055295.7,286047002.4,P
1620055315.6,286046999.9,N
1620055335.4,286047002.6,N
1620055355.3,286047002.0,N
1620055375.1,286047001.9,N
1620055376.0,286047001.9,N
1620055395.8,286047002.5,N
1620055415.7,286047002.1,N
1620055435.5,286047002.6,N
1620055455.4,286047002.1,N
1620055475.2,286047002.4,N
1620055495.0,286047001.4,N
1620055495.9,286047001.4,N
1620055515.8,286047001.9,N
1620055535.6,286047002.0,N
1620055555.4,286047001.7,N
1620055575.3,286047004.2,Y
1620055595.1,286046999.8,P
1620055615.9,286046999.9,N
1620055635.7,286047000.4,N
1620055655.5,286047002.7,Y
1620055675.4,286047000.9,P
1620055695.2,286046999.4,N
1620055715.1,286047001.0,N
1620055716.0,286047001.0,N
1620055735.8,286047001.5,N
1620055755.6,286047001.7,N
1620055775.5,286047004.2,Y
1620055795.3,286047002.2,P
1620055815.2,286047002.7,P
1620055835.9,286047000.6,N
1620055855.7,286046999.8,N
1620055875.6,286047001.1,N
1620055895.4,286047002.8,N
1620055915.2,286047002.2,N
1620055935.1,286046999.8,N
1620055936.0,286046999.8,N
1620055955.8,286046999.7,N
1620055975.7,286046999.9,N
1620055995.5,286047001.2,N
1620056015.3,286046998.3,N
1620056035.2,286047000.4,N
1620056055.9,286046999.7,N
1620056075.7,286047000.6,N
1620056095.6,286047000.3,N
1620056115.4,286047002.7,N
1620056135.3,286047002.0,N
1620056155.1,286046999.8,N
1620056156.0,286046999.8,N
1620056175.8,286046998.2,N
1620056195.7,286047002.4,N
1620056215.5,286047001.3,N
1620056235.3,286047002.3,N
1620056255.2,286047002.1,N
1620056275.0,286047002.0,N
1620056275.9,286047002.0,N
1620056295.8,286047002.0,N
1620056315.6,286047002.8,N
1620056335.4,286047000.7,N
1620056355.3,286046998.2,N
1620056375.1,286046999.2,N
1620056395.8,286046996.9,N
1620056415.7,286046999.5,N
1620056435.5,286047000.6,N
1620056455.4,286046998.1,N
1620056475.2,286046998.1,N
1620056495.0,286046998.2,N
1620056495.9,286046998.2,N
1620056515.8,286046998.5,N
1620056535.6,286047001.1,N
1620056555.4,286046998.6,N
1620056575.3,286046998.5,N
1620056595.1,286047001.2,N
1620056615.9,286046999.3,N
1620056635.7,286046999.5,N
1620056655.5,286046999.4,N
1620056675.4,286046996.6,N
1620056695.2,286046996.8,N
1620056715.0,286046996.8,N
1620056715.9,286046996.8,N
1620056735.8,286046997.1,N
1620056755.6,286046996.9,N
1620056775.5,286046997.1,N
1620056795.3,286046997.5,N
1620056815.1,286046995.2,N
1620056835.9,286046997.4,N
1620056855.7,286046999.4,N
1620056875.5,286046999.3,N
1620056895.4,286046996.6,N
1620056915.2,286046997.7,N
1620056935.1,286046995.1,Y
1620056936.0,286046995.1,P
1620056955.8,286046996.6,N
1620056975.6,286046997.1,N
1620056995.5,286046997.1,N
1620057015.3,286046996.6,Y
1620057035.2,286046998.1,P
1620057055.9,286047001.1,N
1620057075.7,286047000.9,N
1620057095.6,286047000.6,N
1620057115.4,286047000.7,N
1620057135.2,286046999.9,N
1620057155.1,286046998.3,N
1620057156.0,286046998.3,N
1620057175.8,286046998.1,N
1620057195.7,286046999.0,N
1620057215.5,286046996.8,N
1620057235.3,286046996.6,N
1620057255.2,286046996.9,N
1620057275.9,286046998.0,N
1620057295.7,286046995.8,N
1620057315.6,286046998.0,N
1620057335.4,286046997.8,N
1620057355.3,286046995.0,Y
1620057375.1,286046998.0,P
1620057376.0,286046998.0,P
1620057395.8,286046996.2,P
1620057415.7,286046995.9,Y
1620057435.5,286046996.7,P
1620057455.3,286046997.7,P
1620057475.2,286046995.1,P
1620057495.0,286046994.9,Y
1620057495.9,286046994.9,P
1620057515.8,286046998.1,N
1620057535.6,286047001.1,N
1620057555.4,286046998.9,N
1620057575.3,286046997.5,N
1620057595.1,286046995.3,N
